| time (UTC) | temp F | wind direction | speed MPH | gust MPH | rain 1hr in | rain 24hr in | rain mn in | humidity % | barometer mb |
| 20260506081935 | 66 | 233 | 1.0 | 6.0 | 0.00 | 0.09 | 0.00 | 32 | 1009.2 |
| 20260506073435 | 64 | 295 | 1.0 | 8.0 | 0.00 | 0.09 | 0.00 | 36 | 1009.2 |
| 20260506072535 | 65 | 294 | 0.0 | 8.0 | 0.00 | 0.09 | 0.00 | 37 | 1009.2 |
| 20260506071635 | 64 | 304 | 2.0 | 4.0 | 0.00 | 0.09 | 0.00 | 40 | 1009.2 |
| 20260506070735 | 64 | 259 | 0.0 | 7.0 | 0.00 | 0.09 | 0.00 | 45 | 1009.2 |
| 20260506062235 | 58 | 313 | 2.0 | 5.0 | 0.00 | 0.09 | 0.00 | 65 | 1009.1 |
| 20260506061335 | 57 | 321 | 1.0 | 5.0 | 0.00 | 0.09 | 0.00 | 67 | 1009.0 |
| 20260506060435 | 57 | 349 | 1.0 | 4.0 | 0.00 | 0.09 | 0.00 | 70 | 1008.8 |
| 20260506051035 | 54 | 338 | 0.0 | 5.0 | 0.00 | 0.09 | 0.00 | 76 | 1009.1 |
| 20260506044335 | 54 | 2 | 1.0 | 4.0 | 0.00 | 0.09 | 0.00 | 76 | 1009.0 |
| 20260506043435 | 55 | 277 | 0.0 | 7.0 | 0.00 | 0.09 | 0.00 | 76 | 1009.0 |
| 20260506042535 | 55 | 235 | 1.0 | 4.0 | 0.00 | 0.09 | 0.00 | 79 | 1009.1 |
| 20260506041635 | 55 | 275 | 1.0 | 4.0 | 0.00 | 0.09 | 0.00 | 84 | 1008.9 |
| 20260506040735 | 53 | 314 | 0.0 | 3.0 | 0.00 | 0.09 | 0.00 | 88 | 1008.8 |
| 20260506035835 | 53 | 333 | 0.0 | 5.0 | 0.00 | 0.09 | 0.00 | 89 | 1008.6 |
| 20260506034935 | 52 | 349 | 1.0 | 5.0 | 0.00 | 0.09 | 0.00 | 89 | 1008.5 |
| 20260506034035 | 51 | 349 | 0.0 | 5.0 | 0.00 | 0.09 | 0.00 | 88 | 1008.7 |
| 20260506032235 | 51 | 335 | 0.0 | 6.0 | 0.00 | 0.09 | 0.00 | 88 | 1008.5 |
| 20260506031335 | 51 | 320 | 2.0 | 5.0 | 0.00 | 0.09 | 0.00 | 87 | 1008.7 |
| 20260506022835 | 52 | 341 | 0.0 | 3.0 | 0.00 | 0.09 | 0.00 | 87 | 1008.6 |
| 20260506021035 | 52 | 266 | 2.0 | 7.0 | 0.00 | 0.09 | 0.00 | 91 | 1008.6 |
| 20260506020135 | 52 | 316 | 1.0 | 8.0 | 0.00 | 0.09 | 0.00 | 92 | 1008.7 |
| 20260506014335 | 52 | 349 | 0.0 | 4.0 | 0.00 | 0.09 | 0.00 | 92 | 1008.8 |
| 20260506012535 | 51 | 354 | 1.0 | 4.0 | 0.00 | 0.09 | 0.00 | 93 | 1008.9 |
| 20260506011634 | 51 | 1 | 0.0 | 2.0 | 0.00 | 0.09 | 0.00 | 93 | 1008.9 |
| 20260506005835 | 51 | 352 | 1.0 | 3.0 | 0.00 | 0.09 | 0.00 | 92 | 1008.8 |
| 20260506004934 | 51 | 1 | 1.0 | 2.0 | 0.00 | 0.09 | 0.00 | 91 | 1008.7 |
| 20260506004034 | 51 | 1 | 0.0 | 2.0 | 0.00 | 0.09 | 0.00 | 90 | 1008.8 |
| 20260506003134 | 51 | 1 | 0.0 | 2.0 | 0.00 | 0.09 | 0.00 | 90 | 1008.7 |
| 20260506002235 | 51 | 1 | 0.0 | 2.0 | 0.00 | 0.09 | 0.00 | 89 | 1008.8 |
| 20260506001334 | 51 | 1 | 0.0 | 2.0 | 0.00 | 0.09 | 0.00 | 89 | 1008.8 |
| 20260506000434 | 51 | 1 | 0.0 | 1.0 | 0.00 | 0.09 | 0.00 | 89 | 1008.8 |
| 20260505235534 | 51 | 1 | 0.0 | 2.0 | 0.00 | 0.09 | 0.00 | 89 | 1009.0 |
| 20260505234634 | 52 | 1 | 0.0 | 2.0 | 0.00 | 0.09 | 0.00 | 89 | 1009.1 |
| 20260505233734 | 52 | 0 | 0.0 | 0.0 | 0.00 | 0.09 | 0.00 | 89 | 1009.1 |
| 20260505232834 | 53 | 0 | 0.0 | 0.0 | 0.00 | 0.09 | 0.00 | 89 | 1008.9 |
| 20260505231934 | 54 | 0 | 0.0 | 0.0 | 0.00 | 0.09 | 0.00 | 89 | 1009.0 |
| 20260505231035 | 54 | 314 | 0.0 | 2.0 | 0.00 | 0.09 | 0.00 | 90 | 1009.0 |
| 20260505225234 | 54 | 237 | 0.0 | 1.0 | 0.00 | 0.09 | 0.00 | 88 | 1008.9 |
| 20260505224334 | 54 | 0 | 0.0 | 0.0 | 0.00 | 0.09 | 0.00 | 88 | 1008.8 |
| 20260505223434 | 54 | 0 | 0.0 | 0.0 | 0.00 | 0.09 | 0.00 | 88 | 1009.0 |
| 20260505222534 | 55 | 0 | 0.0 | 0.0 | 0.00 | 0.09 | 0.00 | 88 | 1008.8 |
| 20260505221634 | 55 | 1 | 0.0 | 1.0 | 0.00 | 0.09 | 0.00 | 88 | 1008.9 |
| 20260505220734 | 55 | 355 | 0.0 | 2.0 | 0.00 | 0.09 | 0.00 | 88 | 1009.1 |
| 20260505214034 | 56 | 347 | 0.0 | 5.0 | 0.00 | 0.09 | 0.09 | 89 | 1009.1 |
| 20260505212235 | 56 | 344 | 3.0 | 5.0 | 0.00 | 0.09 | 0.09 | 81 | 1008.6 |
| 20260505211335 | 56 | 337 | 1.0 | 4.0 | 0.00 | 0.11 | 0.09 | 78 | 1008.7 |
| 20260505205534 | 56 | 297 | 1.0 | 4.0 | 0.00 | 0.13 | 0.09 | 74 | 1008.3 |
| 20260505204634 | 56 | 295 | 2.0 | 3.0 | 0.00 | 0.13 | 0.09 | 75 | 1008.2 |
| 20260505203735 | 56 | 290 | 0.0 | 7.0 | 0.00 | 0.13 | 0.09 | 75 | 1008.1 |
| 20260505201934 | 56 | 294 | 2.0 | 6.0 | 0.00 | 0.13 | 0.09 | 75 | 1007.8 |
| 20260505201034 | 56 | 280 | 1.0 | 7.0 | 0.00 | 0.13 | 0.09 | 75 | 1007.7 |
| 20260505200135 | 56 | 301 | 3.0 | 8.0 | 0.00 | 0.13 | 0.09 | 77 | 1007.7 |
| 20260505195234 | 56 | 300 | 1.0 | 7.0 | 0.00 | 0.13 | 0.09 | 77 | 1007.7 |
| 20260505193434 | 56 | 309 | 3.0 | 8.0 | 0.01 | 0.13 | 0.09 | 78 | 1007.3 |
| 20260505192534 | 56 | 315 | 1.0 | 4.0 | 0.08 | 0.13 | 0.09 | 76 | 1007.4 |
| 20260505190734 | 56 | 333 | 2.0 | 4.0 | 0.09 | 0.13 | 0.09 | 74 | 1007.1 |
| 20260505185834 | 57 | 315 | 2.0 | 4.0 | 0.09 | 0.13 | 0.09 | 71 | 1006.9 |
| 20260505184034 | 58 | 328 | 3.0 | 6.0 | 0.08 | 0.12 | 0.09 | 60 | 1006.6 |
| 20260505183134 | 60 | 316 | 3.0 | 9.0 | 0.07 | 0.11 | 0.08 | 49 | 1006.9 |
| 20260505182234 | 64 | 310 | 4.0 | 9.0 | 0.00 | 0.04 | 0.00 | 32 | 1007.1 |
| 20260505181334 | 64 | 346 | 2.0 | 8.0 | 0.00 | 0.04 | 0.00 | 33 | 1007.0 |
| 20260505180435 | 65 | 55 | 0.0 | 4.0 | 0.00 | 0.04 | 0.00 | 28 | 1006.5 |
| 20260505175534 | 65 | 1 | 0.0 | 6.0 | 0.00 | 0.04 | 0.00 | 27 | 1006.0 |
| 20260505174634 | 66 | 20 | 2.0 | 6.0 | 0.00 | 0.04 | 0.00 | 24 | 1005.7 |
| 20260505173734 | 67 | 96 | 1.0 | 4.0 | 0.00 | 0.04 | 0.00 | 20 | 1006.1 |
| 20260505172834 | 68 | 83 | 0.0 | 5.0 | 0.00 | 0.04 | 0.00 | 19 | 1006.2 |
| 20260505171934 | 69 | 41 | 2.0 | 6.0 | 0.00 | 0.04 | 0.00 | 18 | 1006.3 |
| 20260505164334 | 73 | 179 | 2.0 | 4.0 | 0.00 | 0.04 | 0.00 | 12 | 1006.2 |
| 20260505162534 | 73 | 342 | 2.0 | 6.0 | 0.00 | 0.04 | 0.00 | 13 | 1006.2 |
| 20260505161634 | 71 | 331 | 2.0 | 5.0 | 0.00 | 0.04 | 0.00 | 15 | 1006.4 |
| 20260505160734 | 72 | 316 | 0.0 | 4.0 | 0.00 | 0.04 | 0.00 | 14 | 1006.4 |
| 20260505153134 | 75 | 72 | 4.0 | 8.0 | 0.00 | 0.04 | 0.00 | 10 | 1006.8 |
| 20260505152234 | 74 | 41 | 2.0 | 8.0 | 0.00 | 0.04 | 0.00 | 10 | 1007.0 |
| 20260505151334 | 76 | 84 | 2.0 | 8.0 | 0.00 | 0.04 | 0.00 | 10 | 1006.8 |
| 20260505150434 | 77 | 72 | 4.0 | 8.0 | 0.00 | 0.04 | 0.00 | 10 | 1006.9 |
| 20260505140134 | 78 | 78 | 2.0 | 10.0 | 0.00 | 0.04 | 0.00 | 10 | 1007.5 |
| 20260505124934 | 75 | 358 | 4.0 | 8.0 | 0.00 | 0.04 | 0.00 | 11 | 1008.2 |
| 20260505124034 | 77 | 11 | 2.0 | 6.0 | 0.00 | 0.04 | 0.00 | 10 | 1008.2 |
| 20260505123134 | 78 | 323 | 1.0 | 5.0 | 0.00 | 0.04 | 0.00 | 10 | 1008.1 |
| 20260505122234 | 78 | 351 | 3.0 | 5.0 | 0.00 | 0.04 | 0.00 | 10 | 1008.4 |
| 20260505121334 | 75 | 310 | 0.0 | 7.0 | 0.00 | 0.04 | 0.00 | 10 | 1008.3 |
| 20260505120434 | 75 | 296 | 3.0 | 8.0 | 0.00 | 0.04 | 0.00 | 10 | 1008.5 |
| 20260505115534 | 76 | 316 | 2.0 | 4.0 | 0.00 | 0.04 | 0.00 | 10 | 1008.3 |
| 20260505114634 | 76 | 304 | 2.0 | 7.0 | 0.00 | 0.04 | 0.00 | 10 | 1008.6 |
| 20260505112834 | 76 | 292 | 1.0 | 3.0 | 0.00 | 0.04 | 0.00 | 10 | 1008.7 |
| 20260505111934 | 76 | 310 | 0.0 | 6.0 | 0.00 | 0.04 | 0.00 | 10 | 1008.6 |
| 20260505111034 | 76 | 156 | 2.0 | 5.0 | 0.00 | 0.04 | 0.00 | 10 | 1008.8 |
| 20260505110134 | 79 | 158 | 2.0 | 8.0 | 0.00 | 0.04 | 0.00 | 10 | 1008.8 |
| 20260505101634 | 80 | 79 | 1.0 | 4.0 | 0.00 | 0.04 | 0.00 | 10 | 1009.0 |
| 20260505100734 | 79 | 79 | 2.0 | 4.0 | 0.00 | 0.04 | 0.00 | 10 | 1009.2 |
| 20260505095834 | 79 | 339 | 2.0 | 4.0 | 0.00 | 0.04 | 0.00 | 10 | 1009.3 |
| 20260505094034 | 79 | 270 | 2.0 | 4.0 | 0.00 | 0.04 | 0.00 | 10 | 1009.5 |
| 20260505093134 | 77 | 355 | 0.0 | 4.0 | 0.00 | 0.04 | 0.00 | 10 | 1009.5 |
| 20260505091334 | 77 | 34 | 2.0 | 4.0 | 0.00 | 0.04 | 0.00 | 10 | 1009.6 |
| 20260505090434 | 77 | 80 | 2.0 | 3.0 | 0.00 | 0.04 | 0.00 | 10 | 1009.7 |
| 20260505085534 | 77 | 314 | 1.0 | 4.0 | 0.00 | 0.04 | 0.00 | 10 | 1009.6 |
| 20260505084634 | 76 | 73 | 2.0 | 4.0 | 0.00 | 0.04 | 0.00 | 10 | 1009.8 |
| 20260505083734 | 76 | 104 | 1.0 | 4.0 | 0.00 | 0.04 | 0.00 | 10 | 1009.7 |
| 20260505082834 | 77 | 116 | 2.0 | 5.0 | 0.00 | 0.04 | 0.00 | 10 | 1009.9 |